User: anonymous   Login
Location: Macksville High School
(37.9611°N, 99.9654°W)
Time: 20:20:01
(UTC+00:00)
Language:

USA 276 - Orbit

View from above orbital plane
View from above orbital plane
View from above satellite
View from above satellite

Ground track
Ground track

The orbit data is extracted from the following two-line orbital elements,

1 42689U 17022A   21107.43752100 0.00009000  00000-0  10743-3 0    04
2 42689  50.0030 326.0401 0011579  17.2572  42.8771 15.60237729    03
Epoch (UTC): 17 April 2021 10:30:01
Eccentricity: 0.0011579
inclination: 50.0030°
perigee height: 379 km
apogee height: 395 km
right ascension of ascending node: 326.0401°
argument of perigee: 17.2572°
revolutions per day: 15.60237729
mean anomaly at epoch: 42.8771°
orbit number at epoch: 0

The dashed part of the orbit path shows where the satellite is in the earth's shadow,  

DLR